EW0890 Weather Reports


time (UTC)temp
C
wind
direction
speed
KPH
gust
KPH
rain 1hr
cm
rain 24hr
cm
rain mn
cm
humidity
%
barometer
mb
20260502224509 13 67 3.2 6.4 0.00 0.00 0.00 38 1017.6
20260502224005 12 256 1.6 3.2 0.00 0.00 0.00 37 1017.7
20260502223505 13 323 1.6 6.4 0.00 0.00 0.00 38 1017.7
20260502223014 13 286 0.0 8.0 0.00 0.00 0.00 37 1017.7
20260502222505 13 323 3.2 8.0 0.00 0.00 0.00 35 1017.6
20260502222005 14 296 1.6 6.4 0.00 0.00 0.00 35 1017.6
20260502221519 13 254 0.0 8.0 0.00 0.00 0.00 36 1017.6
20260502221007 13 330 3.2 9.7 0.00 0.00 0.00 37 1017.6
20260502220509 14 268 4.8 16.1 0.00 0.00 0.00 37 1017.7
20260502220023 13 314 4.8 20.9 0.00 0.00 0.00 36 1017.7
20260502215505 13 273 8.0 20.9 0.00 0.00 0.00 35 1017.8
20260502215005 13 277 11.3 20.9 0.00 0.00 0.00 34 1017.8
20260502214509 13 328 1.6 20.9 0.00 0.00 0.00 37 1017.7
20260502214004 13 278 8.0 19.3 0.00 0.00 0.00 35 1017.7
20260502213506 14 282 8.0 19.3 0.00 0.00 0.00 37 1017.7
20260502213010 13 288 6.4 16.1 0.00 0.00 0.00 41 1017.6
20260502212506 13 277 11.3 20.9 0.00 0.00 0.00 34 1017.7
20260502212005 13 276 6.4 20.9 0.00 0.00 0.00 35 1017.8
20260502211514 13 266 4.8 20.9 0.00 0.00 0.00 37 1017.8
20260502211007 13 278 12.9 20.9 0.00 0.00 0.00 35 1017.8
20260502210507 13 237 4.8 9.7 0.00 0.00 0.00 39 1017.8
20260502210018 13 278 1.6 9.7 0.00 0.00 0.00 40 1017.9
20260502205507 13 6 3.2 12.9 0.00 0.00 0.00 40 1017.9
20260502205010 12 135 4.8 12.9 0.00 0.00 0.00 41 1017.9
20260502204526 12 299 3.2 9.7 0.00 0.00 0.00 38 1017.9
20260502204003 12 252 1.6 11.3 0.00 0.00 0.00 39 1017.9
20260502203503 13 292 3.2 11.3 0.00 0.00 0.00 38 1018.0
20260502203015 13 65 3.2 11.3 0.00 0.00 0.00 43 1018.0
20260502202503 12 29 4.8 11.3 0.00 0.00 0.00 39 1018.1
20260502202002 12 319 3.2 6.4 0.00 0.00 0.00 37 1018.2
20260502201514 13 307 1.6 6.4 0.00 0.00 0.00 40 1018.3
20260502201006 13 57 3.2 6.4 0.00 0.00 0.00 38 1018.3
20260502200507 13 310 3.2 9.7 0.00 0.00 0.00 40 1018.4
20260502200015 13 250 4.8 11.3 0.00 0.00 0.00 39 1018.4
20260502195512 13 42 4.8 11.3 0.00 0.00 0.00 39 1018.4
20260502195006 13 243 1.6 9.7 0.00 0.00 0.00 41 1018.5
20260502194521 13 321 3.2 9.7 0.00 0.00 0.00 41 1018.6
20260502194009 13 269 3.2 11.3 0.00 0.00 0.00 37 1018.6
20260502193508 13 58 1.6 11.3 0.00 0.00 0.00 37 1018.6
20260502193023 13 62 3.2 9.7 0.00 0.00 0.00 40 1018.6
20260502192503 12 338 1.6 6.4 0.00 0.00 0.00 39 1018.6
20260502192006 12 279 1.6 9.7 0.00 0.00 0.00 38 1018.7
20260502191519 12 65 1.6 11.3 0.00 0.00 0.00 38 1018.7
20260502191002 12 340 1.6 11.3 0.00 0.00 0.00 41 1018.7
20260502190506 12 79 6.4 11.3 0.00 0.00 0.00 42 1018.7
20260502190014 12 290 1.6 6.4 0.00 0.00 0.00 42 1018.8
20260502185508 12 267 1.6 8.0 0.00 0.00 0.00 44 1018.8
20260502185007 12 348 1.6 8.0 0.00 0.00 0.00 45 1018.8
20260502184527 12 49 1.6 8.0 0.00 0.00 0.00 39 1018.8
20260502184008 12 93 3.2 11.3 0.00 0.00 0.00 40 1018.8
20260502183508 13 53 3.2 11.3 0.00 0.00 0.00 41 1018.8
20260502183023 13 266 3.2 12.9 0.00 0.00 0.00 42 1018.9
20260502182507 12 72 3.2 12.9 0.00 0.00 0.00 42 1018.9
20260502182011 12 69 3.2 11.3 0.00 0.00 0.00 38 1018.9
20260502181525 13 13 3.2 11.3 0.00 0.00 0.00 41 1018.9
20260502181003 12 278 3.2 11.3 0.00 0.00 0.00 44 1018.9
20260502180504 12 82 1.6 12.9 0.00 0.00 0.00 40 1018.9
20260502164007 12 281 3.2 8.0 0.00 0.00 0.00 44 1019.8
20260502163507 11 65 1.6 8.0 0.00 0.00 0.00 43 1019.8
20260502163023 12 291 1.6 8.0 0.00 0.00 0.00 39 1019.8
20260502162509 12 316 3.2 12.9 0.00 0.00 0.00 47 1019.8
20260502162008 12 343 3.2 12.9 0.00 0.00 0.00 45 1019.8
20260502161522 11 288 4.8 12.9 0.00 0.00 0.00 44 1019.7
20260502161003 11 9 8.0 12.9 0.00 0.00 0.00 39 1019.8
20260502160504 11 43 3.2 19.3 0.00 0.00 0.00 44 1019.9
20260502152007 11 8 0.0 9.7 0.00 0.00 0.00 46 1019.8
20260502151523 10 183 1.6 9.7 0.00 0.00 0.00 44 1019.8
20260502151008 10 26 3.2 9.7 0.00 0.00 0.00 46 1019.8
20260502150507 10 38 4.8 11.3 0.00 0.00 0.00 44 1019.7
20260502130506 7 46 8.0 11.3 0.00 0.00 0.00 63 1019.4
20260502123509 6 70 3.2 6.4 0.00 0.00 0.00 75 1019.2
20260502123031 6 58 3.2 6.4 0.00 0.00 0.00 77 1019.2
20260502122503 5 53 4.8 6.4 0.00 0.00 0.00 78 1019.2
20260502121510 5 46 3.2 4.8 0.00 0.00 0.00 81 1019.2
20260502120507 5 44 3.2 4.8 0.00 0.00 0.00 84 1019.1
20260502115507 4 49 1.6 4.8 0.00 0.00 0.00 86 1018.9
20260502114519 4 53 3.2 4.8 0.00 0.00 0.00 87 1018.7
20260502114006 3 53 3.2 3.2 0.00 0.00 0.00 88 1018.7
20260502113506 3 50 3.2 3.2 0.00 0.00 0.00 86 1018.6
20260502113023 3 50 3.2 3.2 0.00 0.00 0.00 86 1018.6
20260502112506 3 67 3.2 3.2 0.00 0.00 0.00 86 1018.6
20260502112009 4 71 1.6 3.2 0.00 0.00 0.00 86 1018.5
20260502111532 3 74 3.2 3.2 0.00 0.00 0.00 85 1018.5
20260502110503 3 86 0.0 1.6 0.00 0.00 0.00 87 1018.5
20260502110015 3 86 0.0 1.6 0.00 0.00 0.00 86 1018.5
20260502105504 3 86 1.6 3.2 0.00 0.00 0.00 86 1018.5
20260502104519 3 99 1.6 1.6 0.00 0.00 0.00 87 1018.6
20260502103022 3 78 0.0 1.6 0.00 0.00 0.00 87 1018.6
20260502102010 3 78 0.0 1.6 0.00 0.00 0.00 87 1018.5
20260502101526 3 78 1.6 3.2 0.00 0.00 0.00 87 1018.5
20260502101013 3 78 1.6 3.2 0.00 0.00 0.00 87 1018.6
20260502100509 3 79 1.6 4.8 0.00 0.00 0.00 87 1018.6
20260502091524 3 73 1.6 6.4 0.00 0.03 0.00 88 1018.6
20260502091010 3 76 4.8 6.4 0.00 0.03 0.00 88 1018.4
20260502090509 3 91 4.8 8.0 0.00 0.03 0.00 87 1018.4
20260502071517 3 58 4.8 11.3 0.00 0.03 0.00 88 1018.3
20260502071007 3 62 8.0 11.3 0.00 0.03 0.00 88 1018.3
20260502070508 3 60 8.0 11.3 0.00 0.03 0.00 88 1018.3
20260502070023 3 62 6.4 9.7 0.00 0.03 0.00 88 1018.3
20260502065507 3 65 8.0 9.7 0.00 0.03 0.00 88 1018.3
20260502065003 3 63 8.0 9.7 0.00 0.03 0.00 88 1018.3
20260502064514 3 65 8.0 9.7 0.00 0.03 0.00 87 1018.3
20260502064007 3 60 6.4 8.0 0.00 0.03 0.00 86 1018.4
20260502063504 3 74 4.8 8.0 0.00 0.03 0.00 86 1018.4
20260502063017 3 74 6.4 9.7 0.00 0.03 0.00 86 1018.5
20260502062507 3 73 8.0 11.3 0.00 0.03 0.00 86 1018.5
20260502062004 3 64 8.0 14.5 0.00 0.03 0.00 86 1018.4
20260502061515 3 63 9.7 17.7 0.00 0.03 0.00 85 1018.3
20260502061004 4 63 11.3 17.7 0.00 0.03 0.00 85 1018.4
20260502060507 4 57 11.3 17.7 0.00 0.03 0.00 86 1018.5
20260502060022 4 58 11.3 17.7 0.00 0.03 0.00 85 1018.5
20260502055505 4 65 9.7 17.7 0.00 0.03 0.00 85 1018.5
20260502055006 4 62 12.9 19.3 0.00 0.03 0.00 85 1018.5
20260502054506 4 57 14.5 19.3 0.00 0.03 0.00 84 1018.6
20260502054003 5 57 14.5 19.3 0.00 0.03 0.00 84 1018.6
20260502053009 5 65 14.5 20.9 0.00 0.03 0.00 84 1018.5
20260502052504 5 60 14.5 20.9 0.00 0.03 0.00 84 1018.6
20260502052005 5 64 14.5 24.1 0.00 0.03 0.00 83 1018.5
20260502051510 6 55 16.1 24.1 0.00 0.03 0.00 83 1018.5
20260502051003 6 62 14.5 20.9 0.00 0.03 0.00 84 1018.4
20260502050505 6 62 14.5 19.3 0.00 0.03 0.00 84 1018.4
20260502050016 6 62 14.5 19.3 0.00 0.03 0.00 84 1018.4
20260502045506 6 63 11.3 16.1 0.00 0.03 0.03 85 1018.4
20260502045013 6 61 9.7 12.9 0.00 0.03 0.03 84 1018.4
20260502044521 6 67 8.0 11.3 0.00 0.03 0.03 85 1018.3
20260502044006 6 65 8.0 11.3 0.00 0.03 0.03 85 1018.2
20260502043511 6 77 6.4 9.7 0.00 0.03 0.03 85 1018.1
20260502043004 6 70 4.8 8.0 0.00 0.03 0.03 86 1018.1
20260502042504 6 67 6.4 8.0 0.00 0.03 0.03 86 1018.0
20260502041516 6 70 4.8 8.0 0.00 0.03 0.03 85 1018.2
20260502041004 6 67 6.4 8.0 0.00 0.03 0.03 85 1018.1
20260502040504 6 65 6.4 9.7 0.00 0.03 0.03 84 1018.1
20260502040013 6 70 6.4 9.7 0.00 0.08 0.03 83 1018.1
20260502035503 6 75 6.4 9.7 0.00 0.10 0.03 83 1018.0
20260502035007 6 69 6.4 11.3 0.00 0.15 0.03 83 1018.0
20260502034518 6 78 6.4 12.9 0.00 0.18 0.03 82 1018.0
20260502034006 6 86 8.0 12.9 0.00 0.18 0.03 82 1017.9
20260502033508 6 86 8.0 12.9 0.00 0.18 0.03 82 1018.0
20260502033021 7 86 9.7 11.3 0.00 0.18 0.03 81 1018.0
20260502032511 7 68 8.0 14.5 0.00 0.18 0.03 81 1018.1
20260502032012 7 67 8.0 16.1 0.00 0.18 0.03 80 1018.0
20260502031506 7 84 8.0 16.1 0.00 0.18 0.03 80 1018.0
20260502030014 7 64 9.7 12.9 0.00 0.18 0.03 80 1017.9
20260502025503 7 68 9.7 14.5 0.00 0.18 0.03 79 1017.9
20260502025003 7 68 9.7 16.1 0.00 0.18 0.03 79 1017.8
20260502024513 7 58 11.3 16.1 0.00 0.18 0.03 80 1017.7
20260502024006 7 65 11.3 16.1 0.00 0.18 0.03 79 1017.7
20260502023507 7 63 8.0 9.7 0.00 0.18 0.03 81 1017.6
20260502023029 7 63 6.4 8.0 0.00 0.20 0.03 80 1017.5
20260502022509 8 60 6.4 8.0 0.00 0.20 0.03 80 1017.4
20260502022010 8 53 3.2 6.4 0.00 0.20 0.03 81 1017.4
20260502021528 8 50 3.2 4.8 0.00 0.20 0.03 79 1017.3
20260502021007 8 49 3.2 6.4 0.00 0.20 0.03 78 1017.2
20260502020509 8 56 4.8 6.4 0.00 0.20 0.03 77 1017.1
20260502020008 8 50 4.8 6.4 0.00 0.20 0.03 75 1017.1
20260502015002 8 47 1.6 4.8 0.00 0.20 0.03 73 1017.1
20260502014508 8 47 1.6 8.0 0.00 0.20 0.03 70 1017.1
20260502013503 8 57 6.4 8.0 0.00 0.20 0.03 71 1016.9
20260502013014 8 39 0.0 0.0 0.00 0.20 0.03 71 1016.8
20260502012506 8 248 0.0 0.0 0.00 0.20 0.03 71 1016.8
20260502012007 8 248 0.0 0.0 0.00 0.20 0.03 68 1016.7
20260502011519 8 248 0.0 0.0 0.00 0.20 0.03 69 1016.5
20260502011009 8 248 0.0 0.0 0.00 0.20 0.03 68 1016.5
20260502010022 9 248 0.0 0.0 0.00 0.20 0.03 68 1016.2
20260502004526 10 245 0.0 0.0 0.00 0.20 0.03 63 1016.2
20260502003012 10 73 0.0 0.0 0.00 0.20 0.03 62 1016.0
20260502001516 10 84 0.0 0.0 0.00 0.20 0.03 60 1015.9
20260502000019 11 85 0.0 0.0 0.00 0.20 0.03 59 1015.9
20260501234522 11 339 0.0 0.0 0.00 0.20 0.03 59 1015.9
20260501233024 11 326 0.0 4.8 0.00 0.20 0.03 57 1016.0
20260501231514 12 34 0.0 4.8 0.00 0.20 0.03 56 1016.0